Temperature
20 20 19 19 20 21 22 23 24 25 25 26 26 26 25 23 22 20 19 19 19 18 18 18 18 18 18 18 18 18 18 18 18 18 18 18 18 18 18 18 18 18 18 18 18 18 18 18 18
20 19 19 20 21 22 22 23 24 25 25 26 26 25 25 23 21 20 19 19 19 18 18 18 18 18 18 18 18 18 18 18 18 18 18 18 18 18 18 18 18 17 17 17 18 18 18 18 18
20 20 20 21 22 22 23 24 24 26 26 26 26 25 24 23 21 20 19 19 19 18 18 18 18 18 18 18 18 18 17 17 17 17 17 17 17 17 17 17 17 17 17 17 17 17 17 17 18
20 20 21 21 23 24 24 24 25 26 26 26 26 24 23 22 21 20 20 19 18 18 18 18 18 18 18 17 17 17 17 17 17 17 17 17 17 17 17 17 17 17 17 17 17 17 17 17 17
20 21 21 22 24 25 25 26 26 26 26 26 24 23 21 21 20 20 20 19 19 18 18 18 18 18 18 18 17 17 17 17 17 17 17 17 17 17 17 17 17 17 17 17 17 17 17 17 17
20 21 22 22 23 25 26 26 25 26 26 25 24 23 21 21 20 20 20 20 19 19 18 18 18 18 18 18 17 17 17 17 17 17 17 16 16 16 16 16 16 16 16 16 16 17 17 17 17
21 21 22 23 23 24 25 26 25 25 25 25 24 23 21 21 20 20 20 19 19 19 18 18 18 18 18 17 17 17 17 17 16 16 17 17 16 16 16 16 16 16 16 16 16 16 16 17 17
21 21 22 23 23 23 25 26 25 25 24 25 25 23 21 21 20 20 20 19 19 19 19 18 18 18 18 17 17 17 17 17 16 16 16 16 16 16 16 16 16 16 16 16 16 16 16 17 17
22 21 21 23 23 24 25 26 25 25 25 25 24 23 22 21 21 20 20 20 19 19 19 19 18 18 18 17 17 17 17 17 16 16 16 16 16 16 16 16 16 16 16 16 16 16 16 16 17
23 21 22 24 25 25 26 26 26 25 25 24 23 22 22 21 21 21 20 20 20 20 19 19 19 18 18 18 18 17 17 17 16 16 16 16 16 16 16 16 16 16 16 16 16 16 16 16 17
24 23 24 25 25 25 26 26 25 25 24 24 23 22 22 22 22 21 21 21 20 20 20 19 19 19 19 18 18 17 17 17 17 16 16 16 16 16 16 16 16 16 16 16 16 16 16 16 16
24 24 24 25 25 25 25 25 25 24 24 24 23 22 22 22 22 22 22 21 21 20 20 20 19 19 19 18 18 18 17 17 17 17 16 16 16 16 16 16 16 16 15 15 15 16 16 16 16
24 24 24 24 25 25 25 25 25 24 24 24 23 23 22 22 22 22 22 22 21 20 20 20 20 19 19 19 18 18 18 17 17 17 16 16 16 16 16 16 16 15 15 15 15 16 16 16 16
25 24 24 25 25 25 25 25 25 24 24 24 23 23 23 23 23 22 22 22 21 21 20 20 19 19 19 19 18 18 18 17 17 17 16 16 16 16 16 15 15 15 15 15 15 15 15 16 16
25 24 25 25 25 25 25 24 24 24 24 24 23 23 23 23 23 23 22 22 22 21 20 20 19 19 19 18 18 18 18 17 17 16 16 16 16 16 15 15 15 15 15 15 15 15 15 15 16
25 24 23 25 25 25 24 22 24 24 24 24 24 23 23 23 23 23 22 22 22 21 20 20 19 19 18 18 18 18 17 17 17 16 16 16 16 16 15 15 15 15 15 15 15 15 15 15 16
24 23 23 24 25 25 24 22 24 24 24 24 24 23 23 23 23 23 23 22 22 21 20 20 19 19 18 18 18 17 17 17 17 16 16 16 15 15 15 15 15 14 14 14 14 14 15 15 15
24 24 24 24 25 25 24 23 24 24 24 24 24 23 23 23 23 23 22 22 22 21 21 20 19 19 19 18 18 17 17 17 16 16 16 15 15 15 15 15 14 14 14 14 14 14 14 15 15
25 24 24 25 26 25 24 23 23 24 24 24 23 23 23 23 23 23 22 22 22 21 21 20 20 19 19 18 18 17 17 17 16 16 15 15 15 15 15 14 14 14 14 14 14 14 14 15 15
25 24 24 25 25 25 24 24 24 24 24 24 24 23 23 23 23 22 22 22 21 21 21 20 20 19 19 18 18 17 17 17 16 16 16 15 15 15 14 14 14 14 14 14 14 14 14 14 15
25 24 24 24 25 25 24 23 24 24 24 23 23 23 23 22 22 22 22 21 21 21 20 20 20 19 19 18 18 17 17 17 16 16 16 15 15 15 15 14 14 14 14 14 14 14 14 14 14
24 25 25 25 24 23 24 22 23 24 23 23 23 22 22 22 21 21 21 21 21 20 20 20 20 19 19 18 18 18 17 17 16 16 16 16 15 15 15 15 14 14 14 14 14 14 14 14 14
25 26 26 25 24 24 24 23 23 24 23 23 23 22 22 21 21 20 20 20 20 20 20 20 19 19 19 18 18 17 17 17 16 16 16 16 16 15 15 15 15 14 14 14 14 14 14 14 14
26 26 25 25 24 23 24 23 22 23 23 23 23 22 21 21 20 20 20 20 20 19 19 19 19 19 18 18 17 17 17 16 16 16 16 16 16 15 15 15 15 14 14 14 14 14 14 14 14
25 24 23 22 22 23 25 23 22 23 24 23 23 22 21 21 20 19 19 19 19 19 18 18 18 18 18 17 17 17 17 16 16 16 16 16 16 15 15 15 15 14 14 14 14 14 14 14 14
24 23 22 22 22 24 25 23 22 24 23 23 22 22 21 20 20 19 19 18 18 18 18 18 17 17 17 17 17 17 16 16 16 16 16 16 15 15 15 15 15 15 14 14 14 14 14 14 14
24 23 24 24 24 24 23 22 22 23 23 22 22 21 20 20 19 19 18 18 18 18 18 17 17 17 17 17 17 16 16 16 16 16 16 16 15 15 15 15 15 15 15 14 14 14 14 14 14
25 26 25 25 24 23 23 22 22 22 22 22 22 21 20 19 19 18 18 18 17 17 17 17 17 17 17 17 17 16 16 16 16 16 16 15 15 15 15 15 15 15 15 15 14 14 14 14 14
26 26 26 26 26 24 23 22 24 22 22 22 21 21 20 19 19 18 17 17 17 17 17 17 17 17 17 17 16 16 16 16 16 16 15 15 15 15 15 15 15 15 15 15 15 14 14 14 14
27 27 26 25 25 25 24 21 24 23 22 22 21 20 20 19 18 18 17 17 17 16 16 16 16 16 16 16 16 16 16 15 15 15 15 15 15 15 15 15 15 15 15 15 15 14 14 14 14
Wind_Speed
7 7 5 2 2 2 2 4 6 6 7 6 7 10 13 13 9 8 3 8 14 15 15 14 13 13 12 12 12 11 11 11 10 10 9 9 8 8 7 6 6 5 5 5 5 5 6 6 6
7 5 3 2 2 1 3 5 8 7 6 5 8 13 14 12 12 9 6 9 14 14 14 14 13 13 13 12 12 11 11 10 10 9 9 8 8 7 6 6 6 5 5 5 5 5 5 6 6
8 6 3 2 2 2 4 6 5 6 7 6 10 13 9 8 11 7 8 11 14 14 15 14 14 13 12 12 12 11 10 9 9 9 8 8 7 7 7 6 6 5 5 4 5 5 5 5 5
4 3 3 3 1 4 6 7 5 6 6 7 10 10 10 11 9 10 11 13 14 14 16 14 13 13 12 11 11 10 10 9 8 8 7 7 7 6 6 6 6 5 5 4 4 5 5 5 5
3 3 3 2 2 6 7 7 5 6 7 11 14 12 10 13 14 13 10 12 14 14 15 14 13 13 12 11 10 9 9 8 8 7 7 6 6 5 5 5 5 5 5 5 5 5 4 5 5
2 3 2 0 4 6 6 5 5 6 7 9 12 12 8 11 12 11 10 10 11 13 14 14 13 13 12 11 10 9 8 7 6 6 5 4 3 3 3 3 5 5 5 5 5 5 5 5 5
2 3 3 1 5 5 5 5 6 6 7 8 8 10 9 11 10 9 10 9 9 10 11 12 14 12 12 11 9 7 6 5 4 3 1 2 3 3 2 1 2 4 5 5 5 5 5 6 6
3 3 4 2 5 4 4 5 6 7 6 5 6 8 9 11 11 10 9 9 8 8 8 8 10 13 13 11 10 8 6 4 2 2 3 5 6 7 6 3 1 2 3 5 5 6 6 7 7
3 2 2 2 4 4 4 5 6 6 6 7 10 12 14 14 12 10 8 8 7 7 6 7 6 7 8 10 10 9 7 6 5 5 6 7 6 3 4 3 3 2 4 6 7 8 9 10 10
2 1 0 2 4 4 4 4 4 5 6 9 11 13 15 13 11 10 9 9 8 7 6 6 6 6 5 5 8 5 5 5 3 1 2 3 3 4 3 3 4 5 7 8 9 11 11 11 9
3 1 1 3 4 3 4 4 3 4 5 7 11 13 12 11 9 8 8 8 8 7 6 6 5 5 5 3 4 2 2 2 1 2 2 3 4 5 3 1 2 5 6 4 4 8 8 6 3
2 1 0 3 4 2 3 4 5 5 5 8 11 12 10 9 8 7 7 8 7 6 5 5 3 4 5 4 1 1 2 2 2 4 6 4 2 2 2 2 3 3 3 3 3 3 4 3 3
3 3 2 2 2 2 4 5 5 6 7 9 10 10 9 8 7 6 7 8 8 7 6 4 3 5 5 4 1 2 2 2 2 3 3 4 2 3 3 2 2 3 4 3 3 4 4 4 3
2 3 2 2 2 3 3 4 4 6 7 8 9 7 8 7 7 6 7 7 8 7 7 5 4 4 3 3 2 2 1 2 3 3 4 4 3 2 2 4 3 2 4 3 3 4 3 3 3
3 4 5 4 3 3 2 4 5 6 8 8 8 7 7 7 6 6 6 6 8 7 7 6 4 4 3 3 3 2 2 3 2 3 6 7 4 3 2 4 4 3 5 5 3 4 4 4 4
6 6 4 4 4 4 3 4 5 6 6 7 7 7 6 5 6 6 6 6 7 7 7 6 4 5 4 4 2 2 3 3 2 3 5 8 8 6 3 3 4 4 5 4 4 3 4 4 4
6 6 6 6 5 5 4 4 3 5 4 5 5 6 6 5 5 5 6 6 7 7 7 6 5 5 5 3 2 2 2 1 1 4 5 6 8 8 4 3 3 5 3 4 6 4 4 4 5
7 7 7 8 7 6 6 6 5 6 5 5 5 5 5 5 4 5 6 6 6 6 7 7 6 4 5 2 2 2 2 2 2 3 3 4 5 6 5 3 3 4 3 4 4 5 4 4 4
4 5 6 7 8 7 9 8 7 6 4 4 4 3 3 5 4 5 6 6 5 5 6 6 6 6 5 2 1 1 1 1 2 1 3 3 3 4 3 3 3 2 3 3 5 4 5 4 3
3 5 6 7 7 7 9 8 8 8 6 3 4 5 5 5 5 6 6 6 5 4 4 5 5 6 6 3 2 2 2 0 1 0 2 2 3 3 4 3 3 2 1 3 4 3 3 4 4
4 5 6 8 7 8 8 7 8 9 8 6 6 6 6 6 6 6 5 5 4 4 3 3 3 6 6 5 2 1 1 1 0 1 1 1 0 1 2 3 4 3 2 2 3 3 3 3 4
4 5 7 8 6 5 6 6 8 9 7 7 6 6 6 6 7 6 5 5 4 3 2 3 3 4 5 5 2 1 1 0 0 0 1 1 1 1 1 3 3 3 2 3 3 3 2 2 3
3 4 5 6 5 6 6 5 6 7 7 6 6 6 7 7 7 6 5 5 5 5 4 3 4 4 4 4 3 1 1 1 1 1 0 1 1 1 1 2 2 2 2 2 3 3 2 2 2
4 5 4 3 3 4 7 5 5 5 6 7 7 7 7 7 7 7 6 6 6 6 5 5 5 5 3 2 2 2 1 2 2 2 1 2 1 1 1 1 1 1 2 2 3 3 2 1 2
4 3 3 3 3 4 8 6 6 8 9 8 8 8 8 7 7 7 7 6 6 6 5 4 4 3 2 1 1 2 1 2 2 2 1 2 2 0 0 1 1 1 2 2 2 3 2 2 1
4 2 1 3 4 5 6 7 8 9 9 9 9 8 8 8 8 8 7 6 5 5 4 4 3 3 1 1 1 1 1 2 1 2 2 2 2 1 1 1 2 1 1 2 2 2 2 2 2
3 5 6 4 3 4 7 9 9 8 9 9 9 8 8 8 8 7 6 6 5 5 4 3 3 3 2 1 1 1 1 1 1 2 2 2 3 2 2 3 3 2 3 2 1 2 2 3 2
5 5 3 4 3 4 9 9 7 9 8 8 8 7 7 7 7 7 6 6 5 4 3 3 3 2 2 2 2 2 1 1 2 2 3 3 4 3 4 5 4 3 3 3 2 2 2 3 2
5 4 2 3 1 2 4 5 8 9 8 8 7 7 6 6 6 6 5 5 4 4 4 3 2 2 2 2 2 2 2 2 2 2 2 3 4 4 5 5 5 4 3 2 2 3 3 3 3
4 3 2 2 1 1 3 5 8 9 8 8 8 7 7 6 6 6 5 5 4 4 3 3 3 2 2 2 2 3 3 3 3 3 3 4 4 4 5 5 5 4 3 3 3 4 4 4 4
Wind_Direction
263 252 253 272 271 248 59 66 70 64 61 51 54 66 69 57 56 90 129 105 108 109 110 102 99 97 96 93 90 88 84 80 76 73 68 63 57 51 46 41 38 36 31 23 16 10 8 8 8
267 264 268 255 275 57 68 72 70 73 74 69 67 71 72 69 82 99 105 98 104 104 104 101 100 97 95 94 91 87 83 79 75 71 66 60 54 46 39 33 28 25 21 18 12 5 0 2 1
259 261 265 260 278 64 94 89 91 84 75 72 77 67 56 68 82 101 117 108 104 102 101 102 101 98 95 92 89 85 81 77 73 69 64 57 51 43 35 30 24 18 11 6 2 358 352 352 355
260 263 254 258 73 77 102 107 97 89 73 68 76 73 64 66 92 115 123 117 110 107 106 109 106 102 97 92 90 86 80 76 72 67 61 55 49 42 35 28 19 12 5 357 354 351 345 343 344
255 259 262 255 90 89 95 104 100 82 72 71 81 86 83 87 103 114 116 115 115 114 116 118 116 111 104 96 90 85 78 74 70 64 57 49 43 37 30 22 18 12 5 358 350 343 336 335 335
271 261 264 267 88 89 91 99 93 80 72 78 93 98 94 102 105 108 106 106 112 119 122 125 126 122 115 107 98 89 80 73 68 62 54 41 26 19 20 25 19 11 3 354 344 335 324 321 320
273 282 271 128 91 85 93 92 88 82 70 67 91 102 112 111 112 114 109 105 104 114 127 136 144 137 129 121 113 105 96 88 78 70 33 320 300 288 284 14 20 2 352 342 334 328 316 303 298
274 295 305 51 96 85 89 88 87 89 77 66 79 104 125 130 129 119 115 117 119 118 121 129 136 140 143 139 134 135 141 146 163 220 251 271 272 257 247 226 178 324 318 311 307 301 296 288 281
265 288 344 30 102 110 103 94 91 94 93 75 73 102 125 135 133 130 131 126 122 120 125 123 122 124 138 147 143 164 176 187 209 222 244 264 274 263 227 147 156 247 277 279 279 279 279 277 271
215 261 348 37 84 105 101 95 108 109 103 97 97 106 126 140 144 149 148 141 138 135 133 128 130 134 135 113 134 162 160 173 200 127 273 289 314 332 354 138 208 245 260 268 265 270 272 266 256
208 190 80 79 74 95 106 99 80 88 95 110 123 129 138 146 152 152 145 137 134 137 129 126 138 133 120 114 112 105 107 141 92 21 353 352 359 349 17 12 208 251 266 279 282 260 261 252 248
186 138 136 80 77 79 80 81 80 70 84 111 122 135 143 155 153 151 136 125 125 116 119 120 120 120 108 87 86 128 76 53 42 23 9 17 9 336 14 343 12 337 346 356 328 295 305 321 311
192 145 112 92 105 85 83 86 91 93 99 115 125 136 151 150 149 139 120 122 120 128 122 102 101 91 95 102 276 86 82 33 51 38 0 19 19 352 1 337 15 344 353 355 341 318 338 330 311
180 132 143 168 142 116 121 126 116 108 115 119 127 140 149 150 149 137 133 130 124 135 131 123 102 93 99 118 101 88 91 122 52 35 355 16 32 8 1 354 10 355 342 344 330 317 328 309 306
170 178 173 175 160 134 118 92 101 120 124 126 135 141 139 148 148 141 135 133 128 132 129 125 122 105 82 59 34 73 65 58 50 51 5 1 18 19 29 2 355 350 343 343 337 335 330 317 314
204 201 172 156 161 132 120 108 125 123 131 134 142 138 139 151 162 150 146 135 128 127 125 127 123 119 103 82 33 22 49 39 26 53 28 2 5 13 37 6 352 344 349 345 329 334 332 333 332
208 195 164 155 169 159 144 127 138 135 143 140 141 139 149 163 170 149 148 134 128 126 128 133 125 124 116 118 144 76 58 42 37 60 45 5 3 11 17 359 350 351 358 349 340 358 347 330 325
200 187 170 157 162 159 127 129 136 128 128 131 131 139 157 158 167 147 137 126 126 129 128 134 133 126 120 108 85 91 59 8 51 68 62 17 1 8 4 342 1 358 353 347 338 339 335 321 311
218 177 149 136 141 142 128 123 113 110 99 108 117 106 104 125 141 137 133 135 133 134 135 133 149 143 124 111 94 80 69 13 57 57 60 13 357 5 348 347 334 345 350 347 337 343 336 327 327
186 138 135 130 142 141 128 120 112 108 101 86 82 87 89 96 110 115 131 139 146 145 142 141 147 136 130 139 144 153 111 12 130 141 89 6 3 15 353 344 329 334 352 342 327 347 342 326 342
142 145 152 140 140 131 125 115 110 101 82 68 54 57 74 83 90 91 97 111 121 131 141 131 133 139 140 145 125 72 78 291 343 161 134 219 280 56 343 328 327 340 353 327 335 355 343 334 333
143 164 159 150 152 154 152 131 115 109 94 78 63 59 62 72 82 86 81 86 85 81 95 127 134 136 132 134 129 168 199 228 243 189 181 227 121 118 356 317 316 334 341 343 335 355 342 346 324
138 159 168 172 179 161 161 130 111 110 95 86 83 75 70 69 76 87 81 85 76 64 53 47 85 88 103 115 134 231 309 317 352 357 21 299 184 209 108 294 308 327 335 334 331 342 346 341 326
153 170 184 192 191 178 164 143 109 95 93 91 85 84 78 73 70 74 74 72 71 68 58 50 65 67 86 116 154 186 249 305 325 319 309 293 246 203 177 296 293 319 325 326 320 312 318 310 317
195 183 164 181 193 176 153 117 98 83 81 83 82 80 81 77 76 73 70 67 69 73 70 70 75 76 100 149 215 204 218 263 268 279 282 290 293 284 255 296 274 297 302 297 306 303 304 285 282
198 212 217 187 177 155 139 107 106 97 87 83 78 76 78 76 73 72 70 68 66 70 72 70 73 73 81 228 253 222 230 261 272 304 306 299 303 297 273 266 252 232 258 293 298 303 308 308 294
208 203 224 242 197 154 119 115 120 114 103 93 87 81 76 76 73 71 65 64 64 61 58 68 66 60 42 322 304 283 278 310 324 311 307 310 304 303 311 287 271 243 222 233 260 271 287 301 309
253 259 218 213 178 141 139 147 150 139 121 107 97 90 86 87 84 80 71 64 61 63 59 61 73 57 38 4 331 337 338 334 322 302 312 318 312 316 302 290 277 258 238 214 216 258 275 288 275
216 231 259 276 207 144 140 104 122 131 125 116 105 95 91 88 86 81 75 68 62 61 59 53 48 49 38 3 343 349 349 337 324 305 304 290 285 287 286 282 284 280 270 244 217 234 249 269 276
302 304 320 313 313 166 122 111 112 118 115 111 104 98 93 88 88 85 77 71 63 55 51 51 36 29 38 5 358 356 3 344 328 315 311 305 296 289 286 288 292 294 286 271 242 242 248 249 254
Height
1494 1494 1494 1496 1496 1497 1495 1489 1483 1484 1484 1485 1484 1485 1490 1495 1500 1512 1512 1511 1511 1511 1512 1513 1514 1515 1516 1516 1517 1518 1519 1519 1520 1521 1521 1522 1522 1522 1523 1523 1523 1523 1523 1523 1524 1524 1524 1524 1524
1493 1495 1496 1496 1497 1502 1499 1489 1488 1486 1486 1486 1486 1488 1492 1498 1503 1508 1510 1512 1512 1513 1514 1514 1515 1516 1517 1517 1518 1519 1519 1520 1520 1521 1521 1522 1522 1522 1523 1523 1523 1523 1523 1523 1523 1523 1523 1523 1523
1494 1496 1497 1495 1496 1498 1497 1489 1488 1486 1486 1486 1488 1492 1497 1502 1506 1509 1512 1513 1514 1514 1515 1515 1516 1517 1518 1518 1519 1519 1520 1520 1521 1521 1521 1522 1522 1522 1522 1522 1522 1522 1522 1522 1522 1522 1523 1523 1523
1496 1497 1496 1496 1495 1489 1487 1487 1487 1487 1488 1488 1489 1496 1503 1506 1508 1510 1512 1514 1515 1515 1516 1517 1517 1518 1518 1519 1519 1520 1520 1521 1521 1521 1521 1521 1521 1521 1521 1521 1521 1521 1521 1521 1521 1522 1522 1522 1522
1497 1497 1496 1496 1491 1486 1484 1486 1487 1488 1489 1491 1494 1501 1506 1509 1510 1512 1514 1516 1516 1516 1517 1518 1519 1519 1520 1520 1520 1520 1521 1521 1521 1521 1521 1521 1521 1521 1521 1521 1521 1521 1520 1520 1520 1521 1521 1521 1521
1497 1495 1499 1500 1492 1487 1486 1488 1488 1490 1491 1493 1496 1502 1508 1511 1512 1514 1516 1517 1518 1518 1518 1519 1520 1520 1521 1521 1521 1521 1521 1521 1521 1521 1521 1521 1521 1521 1520 1520 1520 1520 1520 1520 1519 1519 1520 1520 1520
1498 1496 1496 1494 1495 1491 1489 1489 1490 1492 1494 1495 1498 1502 1509 1512 1514 1515 1517 1518 1520 1520 1520 1520 1520 1521 1522 1522 1522 1522 1522 1522 1522 1521 1521 1521 1521 1521 1521 1520 1520 1520 1519 1519 1519 1519 1519 1519 1519
1496 1496 1495 1493 1496 1495 1490 1490 1492 1494 1496 1497 1498 1503 1509 1513 1515 1516 1518 1519 1521 1522 1523 1523 1523 1523 1522 1523 1523 1523 1523 1523 1522 1522 1522 1521 1521 1521 1520 1520 1520 1519 1518 1518 1518 1518 1518 1518 1518
1496 1499 1500 1496 1495 1494 1491 1491 1494 1495 1497 1498 1500 1504 1508 1512 1515 1517 1519 1520 1522 1523 1524 1524 1525 1525 1525 1524 1524 1524 1524 1523 1523 1522 1522 1522 1521 1521 1521 1520 1520 1519 1518 1517 1517 1517 1517 1517 1517
1495 1500 1497 1491 1490 1491 1491 1493 1494 1496 1498 1500 1503 1507 1510 1513 1515 1517 1519 1520 1522 1524 1525 1525 1526 1526 1526 1527 1526 1525 1525 1524 1524 1524 1523 1522 1522 1522 1522 1521 1520 1519 1518 1517 1517 1516 1516 1516 1516
1492 1494 1492 1491 1491 1491 1492 1494 1495 1497 1499 1502 1504 1508 1511 1513 1515 1517 1519 1520 1522 1524 1525 1526 1527 1527 1527 1527 1527 1527 1526 1526 1525 1524 1524 1523 1523 1522 1522 1521 1520 1519 1518 1517 1517 1516 1515 1516 1516
1491 1492 1492 1492 1493 1493 1493 1495 1497 1499 1502 1503 1505 1507 1510 1513 1515 1517 1519 1521 1523 1524 1526 1526 1527 1528 1527 1527 1527 1527 1527 1526 1525 1524 1524 1523 1523 1522 1521 1521 1520 1519 1518 1518 1517 1516 1516 1515 1515
1490 1492 1493 1493 1493 1494 1495 1497 1498 1501 1503 1504 1506 1509 1511 1513 1515 1517 1519 1521 1523 1525 1526 1527 1528 1528 1528 1528 1527 1527 1527 1526 1526 1525 1524 1523 1523 1522 1521 1520 1519 1519 1518 1517 1516 1516 1515 1514 1514
1490 1491 1493 1493 1494 1495 1496 1497 1499 1502 1503 1505 1507 1509 1511 1513 1515 1517 1519 1521 1522 1524 1526 1527 1528 1528 1528 1528 1528 1527 1527 1527 1526 1525 1524 1524 1523 1522 1521 1520 1519 1518 1518 1517 1516 1515 1514 1514 1514
1490 1492 1493 1493 1493 1495 1497 1500 1500 1502 1504 1505 1507 1510 1512 1514 1515 1517 1519 1521 1523 1524 1526 1527 1528 1528 1528 1528 1528 1528 1528 1527 1526 1525 1524 1524 1523 1522 1520 1520 1519 1518 1517 1516 1515 1514 1514 1513 1513
1490 1493 1498 1494 1493 1495 1501 1509 1502 1503 1504 1506 1508 1510 1512 1514 1515 1517 1519 1521 1523 1524 1525 1527 1528 1528 1528 1527 1528 1528 1527 1527 1526 1525 1524 1523 1523 1522 1520 1519 1518 1518 1517 1516 1515 1514 1513 1513 1512
1491 1497 1499 1496 1492 1494 1500 1508 1503 1503 1504 1506 1508 1510 1512 1514 1515 1517 1519 1521 1522 1524 1525 1526 1527 1528 1527 1527 1527 1527 1527 1527 1526 1525 1524 1523 1522 1521 1520 1519 1518 1517 1516 1515 1514 1513 1512 1512 1511
1495 1494 1495 1495 1492 1493 1499 1504 1503 1503 1504 1506 1508 1509 1511 1513 1515 1516 1518 1520 1522 1524 1525 1526 1527 1527 1527 1527 1527 1527 1527 1526 1526 1525 1524 1523 1522 1521 1520 1519 1518 1517 1516 1514 1514 1513 1512 1511 1511
1486 1490 1493 1492 1490 1494 1500 1503 1504 1505 1505 1507 1508 1509 1510 1512 1514 1516 1518 1520 1522 1524 1524 1525 1526 1527 1526 1526 1526 1526 1526 1526 1525 1525 1524 1523 1522 1521 1520 1519 1518 1517 1516 1514 1513 1512 1511 1511 1511
1486 1491 1494 1492 1490 1495 1501 1504 1503 1505 1507 1508 1509 1510 1511 1512 1514 1516 1518 1520 1522 1523 1524 1525 1526 1526 1526 1526 1526 1526 1526 1525 1525 1524 1523 1522 1521 1520 1520 1519 1518 1517 1516 1514 1513 1512 1511 1511 1511
1488 1493 1494 1496 1493 1495 1501 1509 1506 1506 1508 1510 1511 1511 1512 1514 1515 1517 1518 1520 1522 1523 1524 1525 1525 1525 1525 1525 1525 1525 1525 1525 1525 1524 1523 1522 1521 1520 1519 1518 1518 1517 1516 1514 1514 1513 1511 1511 1511
1493 1486 1488 1492 1499 1506 1506 1522 1512 1508 1510 1512 1513 1513 1514 1515 1516 1517 1519 1520 1521 1522 1523 1524 1525 1525 1525 1525 1524 1524 1525 1525 1524 1524 1523 1522 1521 1520 1519 1518 1517 1516 1515 1514 1514 1513 1512 1511 1510
1489 1484 1486 1491 1498 1506 1507 1516 1517 1509 1513 1514 1514 1515 1516 1516 1517 1518 1519 1520 1521 1521 1522 1523 1524 1524 1524 1524 1524 1524 1524 1524 1524 1524 1523 1522 1521 1520 1519 1518 1517 1516 1515 1514 1513 1512 1512 1511 1510
1485 1487 1489 1491 1499 1516 1509 1516 1523 1514 1514 1514 1515 1516 1517 1518 1518 1519 1520 1520 1521 1521 1521 1522 1523 1523 1523 1523 1523 1523 1523 1523 1523 1523 1522 1522 1521 1520 1519 1518 1516 1515 1515 1514 1513 1512 1511 1511 1510
1489 1497 1511 1518 1519 1517 1501 1512 1522 1513 1512 1514 1516 1517 1518 1519 1520 1520 1520 1521 1521 1522 1522 1522 1522 1522 1522 1523 1523 1523 1523 1523 1522 1522 1522 1521 1521 1519 1518 1517 1516 1515 1514 1513 1512 1512 1511 1511 1510
1493 1500 1517 1525 1521 1510 1500 1516 1519 1512 1514 1516 1518 1519 1520 1521 1521 1521 1522 1522 1522 1522 1522 1522 1522 1522 1522 1522 1522 1523 1522 1522 1522 1521 1521 1520 1520 1519 1518 1516 1515 1514 1513 1513 1512 1511 1510 1510 1509
1494 1498 1495 1501 1502 1507 1511 1516 1516 1513 1515 1517 1519 1520 1521 1522 1522 1523 1523 1523 1523 1522 1522 1522 1522 1522 1521 1521 1521 1521 1521 1521 1521 1520 1520 1519 1518 1518 1517 1515 1514 1514 1513 1512 1511 1510 1509 1509 1508
1486 1484 1489 1498 1510 1517 1516 1517 1520 1517 1517 1518 1520 1521 1522 1523 1524 1524 1524 1524 1523 1523 1523 1522 1522 1521 1521 1521 1521 1520 1520 1520 1519 1519 1518 1518 1517 1516 1515 1514 1513 1512 1512 1511 1510 1509 1508 1508 1507
1484 1485 1486 1487 1490 1508 1521 1523 1505 1511 1514 1517 1519 1521 1523 1524 1524 1524 1524 1524 1524 1523 1523 1522 1522 1521 1520 1520 1520 1519 1519 1519 1518 1518 1517 1516 1515 1514 1513 1513 1512 1511 1510 1510 1508 1508 1507 1506 1506
1478 1480 1483 1496 1496 1495 1508 1524 1505 1509 1513 1516 1519 1521 1523 1524 1524 1524 1524 1524 1524 1523 1522 1522 1521 1520 1520 1519 1519 1519 1518 1517 1517 1516 1515 1515 1514 1513 1512 1511 1510 1509 1508 1508 1507 1506 1505 1504 1504